Regional Weather Roundup
Issued by NWS

Home | Current Version | Previous Version | Graphics & Text | Print | Product List | Glossary On
Versions: 1 2 3 4 5 6 7 8 9 10 11 12 13 14 15 16 17 18 19 20 21 22 23 24 25 26 27 28 29 30 31 32 33 34 35 36 37 38 39 40 41 42 43 44 45 46 47 48 49 50
000
ASUS43 KOAX 282110
RWRNE

WEATHER ROUNDUP FOR NEBRASKA
NATIONAL WEATHER SERVICE OMAHA NE
400 PM CDT SAT MAY 28 2016

NOTES: SATELLITE DATA IS BEING USED TO AUGMENT CLOUD COVER ABOVE
       12000 FEET.
       "FAIR" INDICATES FEW OR NO CLOUDS BELOW 12,000 FEET WITH NO
       SIGNIFICANT WEATHER AND/OR OBSTRUCTIONS TO VISIBILITY.

  * THESE STATIONS DO NOT REPORT WEATHER SUCH AS RAIN...SNOW OR FOG.

NEZ001>004-019>022-054>056-282200-
NEBRASKA PANHANDLE

CITY           SKY/WX    TMP DP  RH WIND       PRES   REMARKS
SCOTTSBLUFF    SUNNY     76  42  29 SW7       29.92F
ALLIANCE       CLOUDY    71  48  43 VRB5      29.93S
CHADRON        CLOUDY    73  48  41 SW7       29.91S
KIMBALL        SUNNY     68  42  39 SW15      30.00S
SIDNEY         MOSUNNY   71  43  36 S7        29.98S
$$

NEZ057>060-069>072-079>082-282200-
SOUTHWEST NEBRASKA

CITY           SKY/WX    TMP DP  RH WIND       PRES   REMARKS
NORTH PLATTE   SUNNY     71  52  50 W10       29.92S
IMPERIAL       SUNNY     74  47  38 W12       29.95F
LEXINGTON      MOSUNNY   72  53  51 W8        29.91S
MCCOOK         MOSUNNY   75  51  43 NW10      29.93F
OGALLALA       MOSUNNY   71  47  42 SW5       29.94S
$$

NEZ005>010-023>029-035>040-094-282200-
NORTH CENTRAL NEBRASKA

CITY           SKY/WX    TMP DP  RH WIND       PRES   REMARKS
VALENTINE      MOSUNNY   72  47  40 NW9       29.89S
AINSWORTH      MOSUNNY   71  50  47 NW9       29.90R
BROKEN BOW     MOSUNNY   73  54  51 NW9       29.90R
O`NEILL        CLOUDY    70  55  58 NW16      29.87R
ORD            MOSUNNY   72  53  51 NW12      29.87R
THEDFORD       SUNNY     74  48  39 NW5       29.91S
$$

NEZ041-046>049-061>064-073>077-083>087-282200-
SOUTH CENTRAL NEBRASKA

CITY           SKY/WX    TMP DP  RH WIND       PRES   REMARKS
GRAND ISLAND   MOSUNNY   74  52  46 W18       29.88S
AURORA         SUNNY     72  57  58 NW15      29.88S
HASTINGS       PTSUNNY   74  52  46 NW15      29.89S
HEBRON         MOSUNNY   74  55  50 W9G17     29.89R
HOLDREGE       MOSUNNY   72  51  47 W15       29.91S
KEARNEY *      MOSUNNY   73  52  46 NW10      29.91S
YORK           PTSUNNY   70  57  64 NW16      29.87S
$$

NEZ011>018-030>034-042>045-282200-
NORTHEAST NEBRASKA

CITY           SKY/WX    TMP DP  RH WIND       PRES   REMARKS
NORFOLK        PTSUNNY   67  55  65 W18       29.83R
ALBION         PTSUNNY   68  57  66 NW10G17   29.87R
BLAIR          CLOUDY    66  59  79 SW17G30   29.82R
FREMONT        PTSUNNY   69  56  63 W20G25    29.83R
TEKAMAH        CLOUDY    68  57  68 W22       29.78R
WAYNE          CLOUDY    67  59  77 W17G28    29.80R
$$

NEZ050>053-065>068-078-088>093-282200-
SOUTHEAST NEBRASKA

CITY           SKY/WX    TMP DP  RH WIND       PRES   REMARKS
LINCOLN        MOSUNNY   75  57  53 W13       29.85R
OMAHA EPPLEY   PTSUNNY   71  56  58 W23G31    29.80S
BEATRICE       MOSUNNY   73  58  59 W14G21    29.87R
FALLS CITY     MOSUNNY   76  59  55 W13       29.86R
NEBRASKA CITY  MOSUNNY   74  55  51 W22G28    29.84S
PLATTSMOUTH    PTSUNNY   75  58  55 W17G24    29.84R
$$

NEZ044-045-051>053-067-282200-
OMAHA AREA

CITY           SKY/WX    TMP DP  RH WIND       PRES   REMARKS
OMAHA EPPLEY   PTSUNNY   71  56  58 W23G31    29.80S
BLAIR          CLOUDY    66  59  79 SW17G30   29.82R
FREMONT        PTSUNNY   69  56  63 W20G25    29.83R
MILLARD        CLOUDY    70  57  62 W17G28    29.82R
OFFUTT AFB     PTSUNNY   73  56  55 SW17G24   29.81S
PLATTSMOUTH    PTSUNNY   75  58  55 W17G24    29.84R
WAHOO          MOCLDY    72  57  59 W22G28    29.83S
$$




USA.gov is the U.S. government's official web portal to all federal, state and local government web resources and services.